Location: Lake Zurich
(42.1970°N, 88.0930°W)
Time: 23:14:54
(UTC-06:00)

Amateur Radio Satellites - All Passes

Search period start: 19 December 2014 22:44
Search period end: 20 December 2014 22:44
Location: Lake Zurich, 42.1970°N, 88.0930°W

Satellite Date Start Highest point End Downlink Frequencies (MHz)
Time Altitude Azimuth
ANTELSAT 19 Dec 22:45:37 22:50:21 83° 284° (WNW) 22:55:05 437.575/2403.000
CUBEBUG 1 19 Dec 22:46:28 22:50:41 46° 261° (W) 22:54:54 437.445
POLYITAN 1 19 Dec 22:47:13 22:51:30 68° 102° (ESE) 22:55:46 437.675
SO-50 19 Dec 22:49:06 22:52:17 18° 321° (NW) 22:55:32 436.795
NANOSAT C BR1 19 Dec 22:50:18 22:54:34 72° 102° (ESE) 22:58:49 145.865
50 SAT 19 Dec 22:50:33 22:53:15 17° 267° (W) 22:56:00 437.505
QB50P1 19 Dec 23:04:34 23:08:50 78° 285° (WNW) 23:13:05 145.935-145.965
BEESAT 19 Dec 23:09:37 23:12:07 14° 61° (ENE) 23:14:38 436.000
BEESAT 3 19 Dec 23:11:40 23:14:46 20° 248° (WSW) 23:17:50 437.485
AIST 2 19 Dec 23:12:24 23:16:32 48° 242° (WSW) 23:20:36 435.215
M-CUBED/EXP-1 PRIME 19 Dec 23:21:46 23:24:30 15° 56° (NE) 23:27:15 437.505
TIGRISAT 19 Dec 23:22:05 23:26:24 37° 290° (WNW) 23:30:43 435.000
PCSat 19 Dec 23:31:04 23:36:17 48° 247° (WSW) 23:41:26 145.827
ESTCUBE 1 19 Dec 23:31:46 23:34:39 17° 268° (W) 23:37:32 437.505/2401.250
POPSAT HIP 1 19 Dec 23:33:24 23:37:21 38° 289° (WNW) 23:41:17 437.405
YUBILEINY 19 Dec 23:43:09 23:51:51 76° 94° (E) 00:00:33 435.215
RS-15 19 Dec 23:43:21 23:48:19 14° 264° (W) 23:53:24 29.354- 29.394
UNISAT 6 19 Dec 23:51:29 23:54:53 20° 295° (WNW) 23:58:17 437.425
TISAT 1 19 Dec 23:58:14 00:01:55 29° 263° (W) 00:05:38 437.305
SPROUT 19 Dec 23:58:28 00:02:20 33° 263° (W) 00:06:13 437.525
DUCHIFAT 1 20 Dec 00:02:34 00:05:39 20° 294° (WNW) 00:08:44 145.980
O/OREOS (USA 219) 20 Dec 00:04:33 00:08:34 34° 105° (ESE) 00:12:35 437.305
BUGSAT 1 20 Dec 00:05:52 00:08:53 21° 293° (WNW) 00:11:55 437.445
QB50P2 20 Dec 00:16:05 00:18:27 15° 297° (WNW) 00:20:49 145.880/145.840
SWISSCUBE 20 Dec 00:19:23 00:24:09 71° 74° (ENE) 00:28:57 437.505
ITUPSAT 1 20 Dec 00:19:31 00:24:16 65° 73° (ENE) 00:29:03 437.325
POLYITAN 1 20 Dec 00:25:10 00:26:53 12° 298° (WNW) 00:28:36 437.675
ANTELSAT 20 Dec 00:25:55 00:26:22 10° 301° (WNW) 00:26:49 437.575/2403.000
KKS-1 20 Dec 00:27:00 00:29:45 16° 63° (ENE) 00:32:31 437.445
STARS 20 Dec 00:27:02 00:28:07 11° 60° (ENE) 00:29:12 437.465
NANOSAT C BR1 20 Dec 00:28:30 00:29:51 11° 299° (WNW) 00:31:12 145.865
AUBIESAT-1 20 Dec 00:29:09 00:33:51 55° 67° (ENE) 00:38:39 437.475
BEESAT 20 Dec 00:44:36 00:49:22 71° 258° (WSW) 00:54:10 436.000
M-CUBED/EXP-1 PRIME 20 Dec 00:54:01 00:58:50 79° 252° (WSW) 01:03:48 437.505
Oscar 19 20 Dec 01:13:37 01:18:45 56° 101° (E) 01:23:51 437.125/150
Gurwin Techsat 1B 20 Dec 01:19:28 01:22:22 15° 90° (E) 01:25:15 435.225
ITAMSAT 1 20 Dec 01:27:59 01:32:24 28° 95° (E) 01:36:48 435.822/435.867
YUBILEINY 20 Dec 01:42:48 01:49:34 24° 295° (WNW) 01:56:22 435.215
O/OREOS (USA 219) 20 Dec 01:44:21 01:48:01 24° 303° (WNW) 01:51:41 437.305
STARS 20 Dec 01:59:33 02:03:56 81° 257° (WSW) 02:08:20 437.465
ITUPSAT 1 20 Dec 02:00:08 02:02:35 14° 270° (W) 02:05:03 437.325
SWISSCUBE 20 Dec 02:00:29 02:02:30 13° 270° (W) 02:04:32 437.505
KKS-1 20 Dec 02:01:41 02:05:59 51° 260° (W) 02:10:19 437.445
AUBIESAT-1 20 Dec 02:05:46 02:09:04 18° 264° (W) 02:12:26 437.475
VERMONT LUNAR 20 Dec 02:48:05 02:50:49 21° 153° (SSE) 02:53:33 437.305
Oscar 19 20 Dec 02:53:58 02:57:39 20° 298° (WNW) 03:01:19 437.125/150
Gurwin Techsat 1B 20 Dec 02:57:33 03:02:51 71° 286° (WNW) 03:08:07 435.225
PHONESAT 2.4 20 Dec 02:58:37 03:01:08 18° 151° (SSE) 03:03:40 2401.200-2431.200
AIST 1 20 Dec 02:59:00 03:03:03 40° 77° (ENE) 03:07:03
MOZHAYETS 4 20 Dec 03:06:10 03:09:57 25° 67° (ENE) 03:13:44
ITAMSAT 1 20 Dec 03:07:14 03:11:56 36° 292° (WNW) 03:16:38 435.822/435.867
HORYU 2 20 Dec 03:22:50 03:27:24 90° 263° (W) 03:31:54 437.375
GONETS M04 20 Dec 03:45:53 03:51:10 18° 76° (ENE) 03:56:27
AO-7 20 Dec 03:50:38 03:58:49 54° 102° (ESE) 04:06:55 29.400- 29.500
SO-50 20 Dec 03:58:26 04:01:13 15° 36° (NE) 04:04:01 436.795
PRISM 20 Dec 04:07:00 04:09:40 17° 64° (ENE) 04:12:21 437.425
STRAND 1 20 Dec 04:23:09 04:25:31 13° 59° (ENE) 04:27:53 437.568
VERMONT LUNAR 20 Dec 04:25:18 04:28:46 55° 169° (S) 04:32:14 437.305
JAS-2 20 Dec 04:26:45 04:31:56 36° 96° (E) 04:36:44 435.910
CUBESAT XI-V 20 Dec 04:28:47 04:31:16 15° 62° (ENE) 04:33:46 437.345
PHONESAT 2.4 20 Dec 04:35:52 04:39:23 50° 167° (SSE) 04:42:55 2401.200-2431.200
AIST 1 20 Dec 04:37:40 04:40:21 17° 274° (W) 04:43:01
Gurwin Techsat 1B 20 Dec 04:41:30 04:41:50 10° 304° (NW) 04:42:10 435.225
MOZHAYETS 4 20 Dec 04:42:46 04:47:00 34° 263° (W) 04:51:16
CUTE-I 20 Dec 04:52:55 04:55:07 13° 89° (E) 04:57:18 437.470
HORYU 2 20 Dec 05:02:44 05:03:19 10° 301° (WNW) 05:03:55 437.375
SO-50 20 Dec 05:37:40 05:42:35 76° 56° (NE) 05:47:30 436.795
GONETS M04 20 Dec 05:37:47 05:46:38 87° 96° (E) 05:55:32
PRISM 20 Dec 05:40:45 05:44:50 46° 260° (W) 05:48:56 437.425
AO-7 20 Dec 05:43:51 05:51:18 38° 301° (WNW) 05:58:44 29.400- 29.500
Cubesat XI-IV 20 Dec 05:57:05 06:02:16 51° 100° (E) 06:07:26 437.490
STRAND 1 20 Dec 05:58:52 06:03:59 84° 256° (WSW) 06:09:08 437.568
VERMONT LUNAR 20 Dec 06:03:28 06:06:58 63° 186° (S) 06:10:28 437.305
CUBESAT XI-V 20 Dec 06:03:32 06:08:10 66° 259° (W) 06:12:49 437.345
JAS-2 20 Dec 06:12:04 06:16:56 30° 296° (WNW) 06:21:28 435.910
PHONESAT 2.4 20 Dec 06:14:20 06:17:57 67° 184° (S) 06:21:33 2401.200-2431.200
CUTE-I 20 Dec 06:30:28 06:35:48 82° 286° (WNW) 06:41:07 437.470
SO-50 20 Dec 07:20:02 07:22:32 14° 252° (WSW) 07:25:01 436.795
Cubesat XI-IV 20 Dec 07:38:00 07:41:59 22° 297° (WNW) 07:45:59 437.490
GONETS M04 20 Dec 07:38:25 07:44:41 21° 298° (WNW) 07:50:59
VERMONT LUNAR 20 Dec 07:41:56 07:45:01 28° 203° (SSW) 07:48:05 437.305
PHONESAT 2.4 20 Dec 07:53:05 07:56:24 34° 200° (SSW) 07:59:43 2401.200-2431.200
HO-68 20 Dec 07:53:26 07:59:24 28° 94° (E) 08:05:19 435.675
AAUSAT CUBESAT 2 20 Dec 07:59:33 08:01:24 13° 90° (E) 08:03:15 437.432
CANX-2 20 Dec 08:09:47 08:13:33 29° 96° (E) 08:17:18 2200.000
CINEMA 3 20 Dec 08:11:30 08:12:22 10° 89° (E) 08:13:15 145.822/145.860
CUTE-I 20 Dec 08:13:11 08:15:01 12° 303° (WNW) 08:16:51 437.470
ANTELSAT 20 Dec 08:13:25 08:13:41 10° 59° (ENE) 08:13:57 437.575/2403.000
BRITE-PL 20 Dec 08:20:13 08:24:39 41° 99° (E) 08:29:26 437.365/2234.400
COMPASS 1 20 Dec 08:32:52 08:36:46 34° 97° (E) 08:40:37 437.405
SEEDS 20 Dec 08:37:36 08:41:45 45° 99° (E) 08:45:51 437.485
CUTE 1.7 + AOD 2 20 Dec 08:40:20 08:44:36 57° 100° (E) 08:48:50 437.475
CUSAT 1 20 Dec 08:44:10 08:47:10 24° 85° (E) 08:50:55 437.405
TIGRISAT 20 Dec 08:45:49 08:49:08 22° 65° (ENE) 08:52:31 435.000
GOMX 1 20 Dec 08:49:09 08:53:50 58° 101° (E) 08:58:51 467.674
DX 1 20 Dec 08:52:40 08:55:41 18° 93° (E) 08:58:41 434.975-435.025
POPSAT HIP 1 20 Dec 08:52:41 08:55:18 16° 64° (ENE) 08:57:57 437.405
DELFI C3 20 Dec 08:52:48 08:55:52 20° 93° (E) 08:58:55 145.870
MaSat-1 20 Dec 09:03:43 09:05:51 32° 299° (WNW) 09:07:55 437.345
UNISAT 6 20 Dec 09:13:46 09:17:52 42° 71° (ENE) 09:22:06 437.425
HUMSAT D 20 Dec 09:14:36 09:16:00 11° 89° (E) 09:17:24 437.325/437.525
Oscar 11 20 Dec 09:15:07 09:19:18 43° 99° (E) 09:23:27 145.826/435.025
DOVE 4 20 Dec 09:16:39 09:21:25 82° 102° (ESE) 09:26:28 437.250
DUCHIFAT 1 20 Dec 09:19:40 09:23:21 31° 69° (ENE) 09:27:03 145.980
BUGSAT 1 20 Dec 09:21:10 09:24:32 25° 68° (ENE) 09:27:54 437.445
UKube-1 20 Dec 09:23:27 09:27:30 37° 98° (E) 09:31:31 .
CUBEBUG 2 20 Dec 09:31:39 09:36:06 44° 99° (E) 09:40:37 437.445
QB50P2 20 Dec 09:32:32 09:36:32 43° 72° (ENE) 09:40:33 145.880/145.840
DANDE 20 Dec 09:33:06 09:36:29 73° 97° (E) 09:41:05 436.750
AAUSAT CUBESAT 2 20 Dec 09:33:15 09:37:25 57° 286° (WNW) 09:41:34 437.432
HO-68 20 Dec 09:40:29 09:47:27 57° 292° (WNW) 09:54:23 435.675
POLYITAN 1 20 Dec 09:41:06 09:45:12 54° 73° (ENE) 09:49:20 437.675
NANOSAT C BR1 20 Dec 09:43:41 09:47:48 57° 73° (ENE) 09:51:56 145.865
RS-15 20 Dec 09:44:10 09:50:43 18° 98° (E) 09:57:14 29.354- 29.394
ZACube-1 20 Dec 09:44:13 09:48:32 43° 98° (E) 09:52:54 437.345
VELOX 1 20 Dec 09:45:12 09:48:43 23° 95° (E) 09:52:12 145.980
CINEMA 3 20 Dec 09:45:20 09:50:04 84° 284° (WNW) 09:54:59 145.822/145.860
ANTELSAT 20 Dec 09:45:21 09:49:43 88° 257° (WSW) 09:54:14 437.575/2403.000
CANX-2 20 Dec 09:45:48 09:49:24 26° 292° (WNW) 09:52:58 2200.000
YUBILEINY 20 Dec 09:53:00 10:00:59 38° 71° (ENE) 10:08:54 435.215
QB50P1 20 Dec 09:57:55 10:02:08 84° 76° (ENE) 10:06:22 145.935-145.965
BRITE-PL 20 Dec 09:59:21 10:02:58 23° 293° (WNW) 10:06:48 437.365/2234.400
COMPASS 1 20 Dec 10:09:01 10:12:17 22° 293° (WNW) 10:15:32 437.405
UWE-3 20 Dec 10:10:38 10:15:14 85° 284° (WNW) 10:19:54 435.000/436.395/437.385
FUNcube-1 20 Dec 10:10:57 10:15:30 83° 103° (ESE) 10:20:05 145.935
O/OREOS (USA 219) 20 Dec 10:13:27 10:17:58 73° 66° (ENE) 10:22:29 437.305
SEEDS 20 Dec 10:14:25 10:17:12 17° 295° (WNW) 10:19:59 437.485
CUTE 1.7 + AOD 2 20 Dec 10:17:45 10:20:03 14° 297° (WNW) 10:22:20 437.475
TIGRISAT 20 Dec 10:21:39 10:25:39 36° 263° (W) 10:29:46 435.000
POPSAT HIP 1 20 Dec 10:26:48 10:30:51 46° 261° (W) 10:34:55 437.405
CUSAT 1 20 Dec 10:27:04 10:30:11 23° 295° (WNW) 10:34:05 437.405
DELFI C3 20 Dec 10:27:29 10:31:13 33° 290° (WNW) 10:34:54 145.870
AISAT 20 Dec 10:27:30 10:31:55 67° 102° (ESE) 10:36:20 437.250
DX 1 20 Dec 10:28:01 10:32:06 41° 289° (WNW) 10:36:10 434.975-435.025
GOMX 1 20 Dec 10:28:34 10:31:35 17° 295° (WNW) 10:34:43 467.674
50 SAT 20 Dec 10:28:47 10:32:54 61° 101° (E) 10:37:01 437.505
CUBEBUG 1 20 Dec 10:35:16 10:39:05 29° 96° (E) 10:42:53 437.445
HUMSAT D 20 Dec 10:47:54 10:52:12 66° 285° (WNW) 10:56:31 437.325/437.525
UNISAT 6 20 Dec 10:51:52 10:54:53 18° 268° (W) 10:57:57 437.425
Oscar 11 20 Dec 10:52:09 10:55:09 18° 295° (WNW) 10:58:08 145.826/435.025
Oscar 19 20 Dec 10:55:50 10:57:34 12° 57° (ENE) 10:59:19 437.125/150
DUCHIFAT 1 20 Dec 10:55:55 10:59:14 23° 265° (W) 11:02:35 145.980
BUGSAT 1 20 Dec 10:56:31 10:59:58 26° 264° (W) 11:03:24 437.445
DOVE 4 20 Dec 10:56:39 10:58:37 13° 298° (WNW) 11:00:37 437.250
UKube-1 20 Dec 11:00:12 11:03:25 21° 295° (WNW) 11:06:37 .
CUBEBUG 2 20 Dec 11:09:06 11:12:30 21° 294° (WNW) 11:15:56 437.445
QB50P2 20 Dec 11:10:01 11:12:40 16° 268° (W) 11:15:20 145.880/145.840
POLYITAN 1 20 Dec 11:19:32 11:21:29 13° 269° (W) 11:23:26 437.675
ZACube-1 20 Dec 11:21:20 11:24:37 20° 294° (WNW) 11:27:55 437.345
VELOX 1 20 Dec 11:21:22 11:25:21 34° 291° (WNW) 11:29:19 145.980
ESTCUBE 1 20 Dec 11:22:11 11:26:42 80° 285° (WNW) 11:31:10 437.505/2401.250
NANOSAT C BR1 20 Dec 11:22:19 11:24:02 12° 270° (W) 11:25:46 145.865
CINEMA 3 20 Dec 11:25:48 11:26:34 10° 300° (WNW) 11:27:20 145.822/145.860
HO-68 20 Dec 11:31:22 11:33:40 12° 312° (NW) 11:35:57 435.675
TISAT 1 20 Dec 11:42:18 11:46:17 39° 98° (E) 11:50:15 437.305
SPROUT 20 Dec 11:44:29 11:48:32 39° 98° (E) 11:52:34 437.525
YUBILEINY 20 Dec 11:49:44 11:57:55 48° 272° (W) 12:06:06 435.215
FUNcube-1 20 Dec 11:49:48 11:51:12 11° 299° (WNW) 11:52:35 145.935
RS-15 20 Dec 11:50:14 12:01:10 80° 119° (ESE) 12:12:08 29.354- 29.394
O/OREOS (USA 219) 20 Dec 11:55:36 11:56:42 11° 263° (W) 11:57:48 437.305
50 SAT 20 Dec 12:05:48 12:07:38 13° 297° (WNW) 12:09:27 437.505
AISAT 20 Dec 12:05:57 12:08:00 13° 299° (WNW) 12:10:03 437.250
BEESAT 2 20 Dec 12:09:11 12:11:32 15° 109° (ESE) 12:13:55 435.950
CUBEBUG 1 20 Dec 12:11:48 12:15:21 25° 293° (WNW) 12:18:53 437.445
SWISSCUBE 20 Dec 12:20:37 12:23:47 18° 92° (E) 12:26:56 437.505
ITUPSAT 1 20 Dec 12:21:09 12:24:05 16° 91° (E) 12:26:59 437.325
Oscar 19 20 Dec 12:30:56 12:36:04 84° 75° (ENE) 12:41:16 437.125/150
PCSat 20 Dec 12:31:25 12:35:17 20° 106° (ESE) 12:39:10 145.827
Gurwin Techsat 1B 20 Dec 12:40:34 12:44:51 26° 65° (ENE) 12:49:10 435.225
BEESAT 20 Dec 12:44:57 12:49:05 28° 96° (E) 12:53:10 436.000
ITAMSAT 1 20 Dec 12:46:20 12:51:14 45° 70° (ENE) 12:56:10 435.822/435.867
ISS 20 Dec 12:52:23 12:55:09 25° 135° (SE) 12:57:55 145.825
AO-7 20 Dec 13:01:33 13:06:41 18° 48° (NE) 13:11:50 29.400- 29.500
BEESAT 3 20 Dec 13:05:35 13:09:38 67° 120° (ESE) 13:13:46 437.485
AIST 2 20 Dec 13:11:18 13:15:04 32° 115° (ESE) 13:18:53 435.215
TISAT 1 20 Dec 13:18:52 13:21:50 19° 295° (WNW) 13:24:47 437.305
SPROUT 20 Dec 13:21:17 13:24:20 19° 294° (WNW) 13:27:24 437.525
BEESAT 2 20 Dec 13:45:18 13:49:20 54° 307° (NW) 13:53:27 435.950
AUBIESAT-1 20 Dec 13:46:58 13:51:02 38° 102° (ESE) 13:54:45 437.475
STARS 20 Dec 13:50:08 13:53:13 18° 93° (E) 13:56:17 437.465
KKS-1 20 Dec 13:52:42 13:56:36 29° 96° (E) 14:00:29 437.445
SWISSCUBE 20 Dec 13:57:19 14:01:56 50° 289° (WNW) 14:06:30 437.505
ITUPSAT 1 20 Dec 13:57:38 14:02:19 55° 288° (WNW) 14:06:57 437.325
RS-15 20 Dec 14:04:55 14:14:43 36° 326° (NW) 14:24:41 29.354- 29.394
M-CUBED/EXP-1 PRIME 20 Dec 14:12:14 14:16:41 83° 108° (ESE) 14:20:41 437.505
PCSat 20 Dec 14:12:54 14:18:13 58° 304° (WNW) 14:23:36 145.827
Oscar 19 20 Dec 14:14:24 14:16:03 11° 272° (W) 14:17:43 437.125/150
Gurwin Techsat 1B 20 Dec 14:19:33 14:24:34 43° 262° (W) 14:29:38 435.225
HORYU 2 20 Dec 14:21:42 14:26:10 88° 77° (ENE) 14:30:42 437.375
BEESAT 20 Dec 14:22:42 14:26:53 31° 292° (WNW) 14:31:04 436.000
ITAMSAT 1 20 Dec 14:26:54 14:30:55 23° 266° (W) 14:34:58 435.822/435.867
ISS 20 Dec 14:28:25 14:31:35 43° 332° (NNW) 14:34:46 145.825
JAS-2 20 Dec 14:38:54 14:44:31 24° 61° (ENE) 14:49:47 435.910
BEESAT 3 20 Dec 14:45:36 14:48:16 16° 319° (NW) 14:50:57 437.485
AO-7 20 Dec 14:49:49 14:58:05 74° 68° (ENE) 15:06:25 29.400- 29.500
AIST 2 20 Dec 14:49:57 14:53:40 29° 313° (NW) 14:57:27 435.215
AUBIESAT-1 20 Dec 15:22:26 15:25:42 21° 301° (WNW) 15:28:45 437.475
STARS 20 Dec 15:25:41 15:29:52 42° 289° (WNW) 15:34:04 437.465
KKS-1 20 Dec 15:29:22 15:33:09 28° 292° (WNW) 15:36:56 437.445
AIST 1 20 Dec 15:29:39 15:33:10 24° 89° (E) 15:36:41
Cubesat XI-IV 20 Dec 15:43:25 15:45:42 13° 57° (ENE) 15:48:00 437.490
GONETS M04 20 Dec 15:47:48 15:56:09 45° 73° (ENE) 16:04:22
M-CUBED/EXP-1 PRIME 20 Dec 15:49:29 15:50:54 11° 307° (NW) 15:52:17 437.505
PCSat 20 Dec 16:00:36 16:02:50 12° 325° (NW) 16:05:04 145.827
ISS 20 Dec 16:06:32 16:08:48 17° 352° (N) 16:11:04 145.825
CUTE-I 20 Dec 16:14:30 16:18:38 24° 64° (ENE) 16:22:47 437.470
JAS-2 20 Dec 16:21:18 16:28:59 75° 257° (WSW) 16:36:01 435.910
RS-15 20 Dec 16:23:35 16:31:36 22° 0° (N) 16:39:47 29.354- 29.394
MOZHAYETS 4 20 Dec 16:37:08 16:41:41 54° 100° (E) 16:46:10
AO-7 20 Dec 16:45:06 16:51:33 25° 267° (W) 16:58:05 29.400- 29.500
MaSat-1 20 Dec 17:01:42 17:02:24 11° 55° (NE) 17:03:07 437.345
AIST 1 20 Dec 17:06:52 17:10:41 29° 285° (WNW) 17:14:30
Cubesat XI-IV 20 Dec 17:19:39 17:25:00 88° 75° (ENE) 17:30:21 437.490
PRISM 20 Dec 17:23:57 17:27:15 23° 95° (E) 17:30:32 437.425
ISS 20 Dec 17:43:52 17:46:17 19° 12° (NNE) 17:48:42 145.825
GONETS M04 20 Dec 17:44:53 17:52:50 41° 274° (W) 18:00:43
CUTE-I 20 Dec 17:53:17 17:58:23 47° 261° (W) 18:03:32 437.470
CUBESAT XI-V 20 Dec 18:00:17 18:04:20 29° 96° (E) 18:08:20 437.345
STRAND 1 20 Dec 18:09:19 18:13:50 31° 96° (E) 18:18:19 437.568
JAS-2 20 Dec 18:11:27 18:14:49 13° 273° (W) 18:18:06 435.910
MOZHAYETS 4 20 Dec 18:15:32 18:18:28 17° 297° (WNW) 18:21:22
HO-68 20 Dec 18:23:27 18:28:53 24° 57° (ENE) 18:34:20 435.675
DANDE 20 Dec 18:29:56 18:34:36 17° 62° (ENE) 18:39:38 436.750
MaSat-1 20 Dec 18:33:47 18:35:42 20° 249° (WSW) 18:37:42 437.345
RS-15 20 Dec 18:38:28 18:48:32 36° 35° (NE) 18:58:55 29.354- 29.394
AAUSAT CUBESAT 2 20 Dec 18:53:17 18:53:54 10° 61° (ENE) 18:54:31 437.432
PRISM 20 Dec 18:59:10 19:02:48 30° 291° (WNW) 19:06:24 437.425
CANX-2 20 Dec 19:03:52 19:07:14 23° 67° (ENE) 19:10:38 2200.000
Cubesat XI-IV 20 Dec 19:04:08 19:05:46 11° 272° (W) 19:07:24 437.490
CUSAT 1 20 Dec 19:19:46 19:26:55 40° 72° (ENE) 19:34:46 437.405
ISS 20 Dec 19:20:07 19:23:23 60° 31° (NNE) 19:26:36 145.825
COMPASS 1 20 Dec 19:25:23 19:28:53 26° 68° (ENE) 19:32:25 437.405
SEEDS 20 Dec 19:30:36 19:34:27 34° 70° (ENE) 19:38:20 437.485
BRITE-PL 20 Dec 19:32:33 19:36:32 44° 72° (ENE) 19:40:29 437.365/2234.400
CUTE 1.7 + AOD 2 20 Dec 19:33:53 19:37:55 43° 72° (ENE) 19:42:00 437.475
CUBESAT XI-V 20 Dec 19:37:46 19:41:41 28° 292° (WNW) 19:45:35 437.345
DELFI C3 20 Dec 19:42:53 19:45:15 15° 64° (ENE) 19:47:37 145.870
STRAND 1 20 Dec 19:48:29 19:52:59 32° 293° (WNW) 19:57:27 437.568
DX 1 20 Dec 19:49:20 19:52:18 18° 64° (ENE) 19:55:17 434.975-435.025
SO-50 20 Dec 19:54:04 19:57:27 21° 111° (ESE) 20:00:55 436.795
GOMX 1 20 Dec 19:58:42 20:02:47 62° 74° (ENE) 20:06:55 467.674
HO-68 20 Dec 20:08:45 20:15:55 73° 256° (WSW) 20:23:07 435.675
Oscar 11 20 Dec 20:10:32 20:14:29 36° 70° (ENE) 20:18:29 145.826/435.025
DANDE 20 Dec 20:11:24 20:19:03 74° 79° (E) 20:27:45 436.750
UKube-1 20 Dec 20:19:10 20:23:06 35° 69° (ENE) 20:27:03 .
DOVE 4 20 Dec 20:23:37 20:27:45 86° 76° (ENE) 20:31:59 437.250
AAUSAT CUBESAT 2 20 Dec 20:24:42 20:28:55 79° 257° (WSW) 20:33:10 437.432
BEESAT 2 20 Dec 20:27:49 20:30:21 15° 40° (NE) 20:32:53 435.950
CUBEBUG 2 20 Dec 20:31:06 20:34:56 37° 70° (ENE) 20:38:53 437.445
CANX-2 20 Dec 20:39:11 20:43:00 32° 264° (W) 20:46:52 2200.000
ZACube-1 20 Dec 20:41:19 20:45:06 34° 70° (ENE) 20:48:59 437.345
VELOX 1 20 Dec 20:43:57 20:47:25 23° 66° (ENE) 20:50:53 145.980
CINEMA 3 20 Dec 20:48:11 20:52:20 86° 257° (WSW) 20:56:37 145.822/145.860
ESTCUBE 1 20 Dec 20:49:13 20:50:35 11° 60° (ENE) 20:51:58 437.505/2401.250
RS-15 20 Dec 20:50:56 21:02:14 83° 240° (WSW) 21:14:03 29.354- 29.394
ISS 20 Dec 20:57:29 20:59:38 17° 228° (SW) 21:01:47 145.825
COMPASS 1 20 Dec 21:00:54 21:04:31 28° 265° (W) 21:08:11 437.405
CUSAT 1 20 Dec 21:02:43 21:10:06 50° 268° (W) 21:18:11 437.405
SEEDS 20 Dec 21:07:09 21:10:21 21° 267° (W) 21:13:35 437.485
FUNcube-1 20 Dec 21:07:37 21:11:45 68° 75° (ENE) 21:16:00 145.935
UWE-3 20 Dec 21:08:39 21:12:49 84° 76° (ENE) 21:17:07 435.000/436.395/437.385
CUTE 1.7 + AOD 2 20 Dec 21:11:19 21:14:04 17° 268° (W) 21:16:50 437.475
BRITE-PL 20 Dec 21:13:04 21:15:21 14° 269° (W) 21:17:37 437.365/2234.400
DELFI C3 20 Dec 21:16:08 21:20:06 48° 261° (W) 21:24:08 145.870
PCSat 20 Dec 21:17:37 21:21:48 22° 44° (NE) 21:25:58 145.827
50 SAT 20 Dec 21:17:44 21:21:29 40° 72° (ENE) 21:25:18 437.505
DX 1 20 Dec 21:24:05 21:28:14 43° 261° (W) 21:32:23 434.975-435.025
BEESAT 3 20 Dec 21:24:57 21:29:02 48° 53° (NE) 21:33:02 437.485
AISAT 20 Dec 21:26:08 21:30:30 65° 74° (ENE) 21:34:53 437.250
CUBEBUG 1 20 Dec 21:32:22 21:36:04 28° 68° (ENE) 21:39:45 437.445
AIST 2 20 Dec 21:32:41 21:36:24 28° 47° (NE) 21:40:05 435.215
SO-50 20 Dec 21:33:16 21:37:39 46° 309° (NW) 21:42:12 436.795
ANTELSAT 20 Dec 21:37:50 21:41:20 20° 93° (E) 21:44:48 437.575/2403.000
HUMSAT D 20 Dec 21:40:34 21:44:41 87° 257° (WSW) 21:48:54 437.325/437.525
GOMX 1 20 Dec 21:40:47 21:41:23 10° 271° (W) 21:42:00 467.674
QB50P1 20 Dec 21:44:38 21:46:43 13° 91° (E) 21:48:47 145.935-145.965
Oscar 11 20 Dec 21:47:31 21:50:46 20° 267° (W) 21:54:02 145.826/435.025
DANDE 20 Dec 21:55:55 22:02:03 26° 274° (W) 22:08:44 436.750
UKube-1 20 Dec 21:56:03 21:59:21 21° 266° (W) 22:02:39 .
HO-68 20 Dec 22:02:24 22:04:46 12° 274° (W) 22:07:09 435.675
BEESAT 2 20 Dec 22:04:55 22:09:07 75° 239° (WSW) 22:13:14 435.950
CUBEBUG 2 20 Dec 22:08:51 22:11:48 19° 268° (W) 22:14:50 437.445
POPSAT HIP 1 20 Dec 22:12:05 22:15:42 27° 96° (E) 22:19:20 437.405
TIGRISAT 20 Dec 22:12:30 22:17:01 44° 99° (E) 22:21:31 435.000
ZACube-1 20 Dec 22:18:30 22:21:36 20° 267° (W) 22:24:45 437.345
VELOX 1 20 Dec 22:19:47 22:23:49 34° 263° (W) 22:27:51 145.980
ESTCUBE 1 20 Dec 22:22:15 22:26:47 82° 257° (WSW) 22:31:21 437.505/2401.250
TISAT 1 20 Dec 22:35:38 22:39:22 32° 70° (ENE) 22:43:07 437.305
